Tiempo cada hora Dabuleni

Hoy, 4 Agosto, Miércoles

Tiempo Temperatura Precipitaciones Viento Presión Humedad
00:00 +25°C° 0 mm 2 mps 755 mmHg 36%
01:00 +25°C° 0 mm 2 mps 755 mmHg 38%
02:00 +24°C° 0 mm 2 mps 755 mmHg 40%
03:00 +24°C° 0 mm 2 mps 755 mmHg 43%
04:00 +23°C° 0 mm 2 mps 755 mmHg 47%
05:00 +22°C° 0 mm 1 mps 755 mmHg 51%
06:00 +24°C° 0 mm 1 mps 756 mmHg 48%
07:00 +26°C° 0 mm 2 mps 756 mmHg 44%
08:00 +28°C° 0 mm 2 mps 756 mmHg 41%
09:00 +30°C° 0 mm 2 mps 756 mmHg 36%
10:00 +34°C° 0 mm 2 mps 756 mmHg 30%
11:00 +36°C° 0 mm 2 mps 756 mmHg 25%
12:00 +37°C° 0 mm 3 mps 755 mmHg 22%
13:00 +39°C° 0 mm 3 mps 755 mmHg 18%
14:00 +41°C° 0 mm 4 mps 754 mmHg 15%
15:00 +41°C° 0 mm 4 mps 754 mmHg 15%
16:00 +40°C° 0 mm 3 mps 754 mmHg 14%
17:00 +40°C° 0 mm 3 mps 753 mmHg 14%
18:00 +38°C° 0 mm 3 mps 753 mmHg 16%
19:00 +35°C° 0 mm 3 mps 753 mmHg 19%
20:00 +32°C° 0 mm 2 mps 753 mmHg 21%
21:00 +31°C° 0 mm 2 mps 753 mmHg 23%
22:00 +29°C° 0 mm 2 mps 754 mmHg 25%
23:00 +28°C° 0 mm 2 mps 754 mmHg 27%

Mañana, 5 Agosto, Jueves

Tiempo Temperatura Precipitaciones Viento Presión Humedad
00:00 +27°C° 0 mm 2 mps 754 mmHg 28%
01:00 +27°C° 0 mm 2 mps 754 mmHg 30%
02:00 +26°C° 0 mm 2 mps 753 mmHg 32%
03:00 +25°C° 0 mm 2 mps 753 mmHg 37%
04:00 +24°C° 0 mm 2 mps 753 mmHg 43%
05:00 +24°C° 0 mm 2 mps 753 mmHg 48%
06:00 +26°C° 0 mm 3 mps 752 mmHg 46%
07:00 +28°C° 0 mm 3 mps 752 mmHg 43%
08:00 +30°C° 0 mm 3 mps 752 mmHg 40%
09:00 +34°C° 0 mm 3 mps 752 mmHg 33%
10:00 +37°C° 0 mm 2 mps 751 mmHg 26%
11:00 +40°C° 0 mm 2 mps 751 mmHg 19%
12:00 +42°C° 0 mm 2 mps 750 mmHg 16%
13:00 +45°C° 0 mm 2 mps 749 mmHg 13%
14:00 +46°C° 0 mm 2 mps 748 mmHg 10%
15:00 +45°C° 0 mm 3 mps 747 mmHg 11%
16:00 +45°C° 0 mm 4 mps 747 mmHg 12%
17:00 +45°C° 0 mm 6 mps 746 mmHg 12%
18:00 +40°C° 0 mm 5 mps 747 mmHg 19%
19:00 +36°C° 0 mm 4 mps 747 mmHg 26%
20:00 +31°C° 0 mm 3 mps 748 mmHg 33%
21:00 +30°C° 0 mm 3 mps 748 mmHg 37%
22:00 +28°C° 0 mm 3 mps 748 mmHg 40%
23:00 +27°C° 0 mm 2 mps 748 mmHg 44%

Pasado mañana, 6 Agosto, Viernes

Tiempo Temperatura Precipitaciones Viento Presión Humedad
00:00 +26°C° 0 mm 2 mps 748 mmHg 49%
01:00 +25°C° 0 mm 2 mps 748 mmHg 53%
02:00 +24°C° 0 mm 2 mps 748 mmHg 58%
03:00 +24°C° 0 mm 2 mps 748 mmHg 59%
04:00 +24°C° 0 mm 2 mps 748 mmHg 60%
05:00 +24°C° 0 mm 2 mps 748 mmHg 61%
06:00 +25°C° 0 mm 2 mps 749 mmHg 57%
07:00 +27°C° 0 mm 3 mps 749 mmHg 53%
08:00 +28°C° 0 mm 3 mps 749 mmHg 48%
09:00 +30°C° 0 mm 4 mps 749 mmHg 41%
10:00 +33°C° 0 mm 4 mps 749 mmHg 34%
11:00 +35°C° 0 mm 5 mps 749 mmHg 26%
12:00 +36°C° 0 mm 6 mps 748 mmHg 25%
13:00 +36°C° 0 mm 7 mps 748 mmHg 24%
14:00 +38°C° 0 mm 8 mps 748 mmHg 23%
15:00 +36°C° 0 mm 7 mps 748 mmHg 25%
16:00 +35°C° 0 mm 7 mps 748 mmHg 26%
17:00 +34°C° 0 mm 6 mps 748 mmHg 28%
18:00 +32°C° 0 mm 6 mps 748 mmHg 33%
19:00 +29°C° 0 mm 6 mps 749 mmHg 39%
20:00 +27°C° 0 mm 5 mps 749 mmHg 45%
21:00 +26°C° 0 mm 5 mps 750 mmHg 44%
22:00 +26°C° 0 mm 5 mps 750 mmHg 43%
23:00 +25°C° 0 mm 5 mps 750 mmHg 43%

7 Agosto, Sábado

Tiempo Temperatura Precipitaciones Viento Presión Humedad
00:00 +23°C° 0 mm 5 mps 750 mmHg 45%
01:00 +22°C° 0 mm 4 mps 750 mmHg 47%
02:00 +22°C° 0 mm 4 mps 750 mmHg 49%
03:00 +21°C° 0 mm 4 mps 751 mmHg 52%
04:00 +20°C° 0 mm 3 mps 751 mmHg 55%
05:00 +19°C° 0 mm 3 mps 752 mmHg 59%
06:00 +22°C° 0 mm 3 mps 752 mmHg 52%
07:00 +25°C° 0 mm 3 mps 752 mmHg 45%
08:00 +27°C° 0 mm 3 mps 753 mmHg 38%
09:00 +29°C° 0 mm 3 mps 753 mmHg 34%
10:00 +31°C° 0 mm 3 mps 753 mmHg 30%
11:00 +34°C° 0 mm 2 mps 753 mmHg 26%
12:00 +35°C° 0 mm 2 mps 753 mmHg 24%
13:00 +35°C° 0 mm 1 mps 752 mmHg 22%
14:00 +37°C° 0 mm 1 mps 752 mmHg 20%
15:00 +37°C° 0 mm 1 mps 752 mmHg 20%
16:00 +37°C° 0 mm 1 mps 752 mmHg 19%
17:00 +38°C° 0 mm 2 mps 752 mmHg 19%
18:00 +36°C° 0 mm 2 mps 752 mmHg 22%
19:00 +34°C° 0 mm 2 mps 753 mmHg 26%
20:00 +31°C° 0 mm 3 mps 753 mmHg 30%
21:00 +30°C° 0 mm 3 mps 753 mmHg 34%
22:00 +29°C° 0 mm 4 mps 754 mmHg 39%
23:00 +28°C° 0 mm 4 mps 754 mmHg 43%

8 Agosto, Domingo

Tiempo Temperatura Precipitaciones Viento Presión Humedad
00:00 +27°C° 0 mm 4 mps 754 mmHg 46%
01:00 +26°C° 0 mm 3 mps 754 mmHg 48%
02:00 +24°C° 0 mm 2 mps 754 mmHg 51%
03:00 +24°C° 0 mm 2 mps 755 mmHg 53%
04:00 +23°C° 0 mm 2 mps 755 mmHg 55%
05:00 +23°C° 0 mm 2 mps 755 mmHg 57%
06:00 +25°C° 0 mm 2 mps 756 mmHg 51%
07:00 +27°C° 0 mm 2 mps 756 mmHg 45%
08:00 +29°C° 0 mm 2 mps 756 mmHg 38%
09:00 +31°C° 0 mm 2 mps 756 mmHg 33%
10:00 +35°C° 0 mm 2 mps 756 mmHg 28%
11:00 +37°C° 0 mm 2 mps 756 mmHg 23%
12:00 +39°C° 0 mm 2 mps 756 mmHg 20%
13:00 +40°C° 0 mm 2 mps 755 mmHg 18%
14:00 +41°C° 0 mm 1 mps 755 mmHg 15%
15:00 +41°C° 0 mm 1 mps 755 mmHg 14%
16:00 +42°C° 0 mm 1 mps 755 mmHg 14%
17:00 +42°C° 0 mm 1 mps 755 mmHg 13%
18:00 +39°C° 0 mm 2 mps 755 mmHg 16%
19:00 +36°C° 0 mm 2 mps 755 mmHg 20%
20:00 +34°C° 0 mm 3 mps 755 mmHg 23%
21:00 +31°C° 0 mm 3 mps 755 mmHg 27%
22:00 +30°C° 0 mm 4 mps 756 mmHg 30%
23:00 +29°C° 0 mm 4 mps 756 mmHg 33%

9 Agosto, Lunes

Tiempo Temperatura Precipitaciones Viento Presión Humedad
00:00 +28°C° 0 mm 3 mps 756 mmHg 35%
01:00 +27°C° 0 mm 3 mps 756 mmHg 38%
02:00 +27°C° 0 mm 2 mps 756 mmHg 40%
03:00 +26°C° 0 mm 2 mps 756 mmHg 42%
04:00 +25°C° 0 mm 2 mps 756 mmHg 44%
05:00 +25°C° 0 mm 2 mps 757 mmHg 46%
06:00 +27°C° 0 mm 2 mps 757 mmHg 41%
07:00 +29°C° 0 mm 2 mps 757 mmHg 36%
08:00 +31°C° 0 mm 2 mps 757 mmHg 31%
09:00 +35°C° 0 mm 2 mps 757 mmHg 27%
10:00 +37°C° 0 mm 2 mps 757 mmHg 23%
11:00 +40°C° 0 mm 2 mps 757 mmHg 19%
12:00 +41°C° 0 mm 2 mps 756 mmHg 17%
13:00 +42°C° 0 mm 2 mps 756 mmHg 15%
14:00 +45°C° 0 mm 2 mps 755 mmHg 13%
15:00 +45°C° 0 mm 2 mps 755 mmHg 13%
16:00 +45°C° 0 mm 3 mps 754 mmHg 13%
17:00 +45°C° 0 mm 3 mps 754 mmHg 12%
18:00 +42°C° 0 mm 3 mps 754 mmHg 16%
19:00 +38°C° 0 mm 3 mps 754 mmHg 19%
20:00 +36°C° 0 mm 4 mps 754 mmHg 22%
21:00 +34°C° 0.1 mm 3 mps 755 mmHg 28%
22:00 +31°C° 0.1 mm 3 mps 755 mmHg 34%
23:00 +29°C° 0.1 mm 2 mps 755 mmHg 40%
Mostrar más

Necesitamos Su Consentimiento

Meteoprog y nuestros Proveedores de Servicios pueden almacenar y acceder a sus datos personales como cookies, identificadores de dispositivo u otras tecnologías similares de su dispositivo y procesar dichos datos para personalizar contenido y anuncios, además de ofrecer funciones de redes sociales y analizar el tráfico.

  • Almacenar y/o acceder a información en su dispositivo

    Se puede almacenar o acceder a cookies, identificadores de dispositivo u otra información de su dispositivo para los fines anteriormente indicados.

  • Anuncios y contenido personalizados, medición de anuncios y contenido, percepciones del público, y desarrollo de productos

    Los anuncios y el contenido pueden personalizarse en base a su perfil. Se pueden añadir más datos para personalizar mejor los anuncios y contenidos. Se puede medir el rendimiento de los anuncios y contenidos. Se puede obtener la percepción sobre el público que ha visto los anuncios y contenidos. Dichos datos pueden usarse para desarrollar o mejorar la experiencia del usuario, sistemas y software.

Al hacer clic en ‘Estoy De Acuerdo’ usted permitirá el uso de las cookies, identificadores de dispositivo, balizas web u otras tecnologías similares indicadas. Su configuración puede cambiarse desde el navegador de su dispositivo.

Para ciertos fines, los intereses legítimos pueden ser considerados por encima del consentimiento. Puede leer más sobre ello en nuestra Política de Privacidad y Cookies.